Gwinn, MI

11:20 AM EDT on April 23, 2018 (GMT -0400)
Sawyer International

Weather History for KSAW - January, 2013

Change the Weather History Date:

Friday, January 11, 2013

  Actual Average (KESC) Record (KESC)
Temperature  
Mean Temperature 35 °F -  
Max Temperature 37 °F 25 °F 42 °F (1975)
Min Temperature 33 °F 10 °F -14 °F (1999)
Degree Days  
Heating Degree Days 30    
Moisture  
Dew Point 34 °F    
Average Humidity 95    
Maximum Humidity 100    
Minimum Humidity 87    
Precipitation  
Precipitation 0.01 in - - ()
Sea Level Pressure  
Sea Level Pressure 29.68 in    
Wind  
Wind Speed 14 mph (South)    
Max Wind Speed 22 mph    
Max Gust Speed 26 mph    
Visibility 4 miles    
Events Fog , Rain , Snow    
Averages and records for this station are not official NWS values.
T = Trace of Precipitation, MM = Missing Value Source: NWS Daily Summary

Daily Weather History Graph

Daily Weather History Graph

Search for Another Location

Airport or City:

Astronomy

Jan. 11, 2013 Rise Set
Actual Time 8:30 AM EST 5:25 PM EST
Civil Twilight 7:56 AM EST 5:59 PM EST
Nautical Twilight 7:19 AM EST 6:36 PM EST
Astronomical Twilight 6:42 AM EST 7:12 PM EST
Moon 8:00 AM EST (1/11) 5:46 PM EST (1/11)
Length of Visible Light 10h 02m
Length of Day
8h 54m
Waning Crescent, 0% of the Moon is Illuminated
Jan 11
Waning Crescent
Jan 11
New
Jan 18
First Quarter
Jan 26
Full
Feb 3
Last Quarter

Hourly Weather History & Observations

Time (EST) Temp. Windchill Dew Point Humidity Pressure Visibility Wind Dir Wind Speed Gust Speed Precip Events Conditions
12:17 AM 33.8 °F 24.3 °F 30.2 °F 87% 29.94 in 10.0 mi South 13.8 mph - N/A   Overcast
12:37 AM 34.0 °F 24.6 °F 30.4 °F 87% 29.91 in 10.0 mi South 13.8 mph - N/A   Overcast
12:56 AM 34.0 °F 24.2 °F 30.6 °F 87% 29.90 in 10.0 mi South 15.0 mph - N/A   Overcast
1:17 AM 33.8 °F 23.2 °F 30.7 °F 89% 29.90 in 7.0 mi South 17.3 mph 21.9 mph N/A   Light Drizzle
1:37 AM 33.4 °F 23.5 °F 31.1 °F 91% 29.89 in 7.0 mi South 15.0 mph 24.2 mph N/A   Overcast
1:57 AM 33.3 °F 22.8 °F 31.5 °F 93% 29.87 in 10.0 mi South 16.1 mph - N/A   Overcast
2:17 AM 33.3 °F 22.5 °F 31.8 °F 94% 29.86 in 7.0 mi South 17.3 mph 21.9 mph N/A Snow Light Snow
2:37 AM 33.1 °F 21.9 °F 32.0 °F 96% 29.85 in 3.0 mi South 18.4 mph 24.2 mph N/A Snow Light Snow
2:57 AM 33.3 °F 21.5 °F 32.0 °F 95% 29.83 in 4.0 mi South 20.7 mph 26.5 mph 0.01 in   Overcast
3:17 AM 33.3 °F 21.8 °F 32.0 °F 95% 29.81 in 7.0 mi South 19.6 mph 25.3 mph N/A   Overcast
3:37 AM 33.3 °F 21.8 °F 32.0 °F 95% 29.79 in 7.0 mi South 19.6 mph 25.3 mph N/A   Overcast
3:57 AM 33.3 °F 22.1 °F 32.2 °F 96% 29.77 in 4.0 mi South 18.4 mph 25.3 mph N/A   Overcast
4:16 AM 33.4 °F 22.3 °F 32.5 °F 96% 29.75 in 4.0 mi South 18.4 mph 24.2 mph N/A Snow Light Snow
4:37 AM 33.8 °F 21.9 °F 32.9 °F 96% 29.73 in 7.0 mi South 21.9 mph 26.5 mph N/A   Overcast
4:57 AM 33.8 °F 22.8 °F 32.9 °F 96% 29.72 in 7.0 mi South 18.4 mph 23.0 mph N/A   Overcast
5:17 AM 34.0 °F 23.4 °F 33.1 °F 96% 29.72 in 5.0 mi SSW 17.3 mph 24.2 mph N/A Rain Light Rain
5:37 AM 34.0 °F 24.2 °F 33.1 °F 96% 29.72 in 5.0 mi SSW 15.0 mph 23.0 mph N/A   Overcast
5:57 AM 34.0 °F 23.4 °F 33.1 °F 96% 29.71 in 2.5 mi South 17.3 mph - N/A Snow Light Snow
6:50 AM 33.8 °F 23.9 °F 33.8 °F 100% 29.68 in 4.0 mi South 15.0 mph - N/A   Overcast
7:25 AM 33.8 °F 24.8 °F 33.8 °F 100% 29.67 in 2.0 mi South 12.7 mph - N/A   Overcast
7:50 AM 33.8 °F 23.9 °F 33.8 °F 100% 29.67 in 1.8 mi South 15.0 mph - N/A   Overcast
8:15 AM 33.8 °F 25.3 °F 33.8 °F 100% 29.65 in 0.8 mi South 11.5 mph - N/A   Overcast
8:50 AM 33.8 °F 25.8 °F 33.8 °F 100% 29.65 in 0.5 mi SSW 10.4 mph - N/A Fog Fog
9:48 AM 35.6 °F 27.5 °F 33.8 °F 93% 29.63 in 0.2 mi South 11.5 mph - N/A Fog Fog
10:50 AM 35.6 °F 27.1 °F 35.6 °F 100% 29.61 in 0.5 mi South 12.7 mph - N/A Fog Fog
11:50 AM 35.6 °F 29.9 °F 35.6 °F 100% 29.60 in 0.2 mi SSW 6.9 mph - N/A Fog Fog
12:50 PM 35.6 °F 29.2 °F 35.6 °F 100% 29.58 in 0.2 mi SSW 8.1 mph - N/A Fog Fog
1:50 PM 37.4 °F 30.8 °F 35.6 °F 93% 29.57 in 0.5 mi SSW 9.2 mph - N/A Fog Fog
2:50 PM 37.4 °F 32.1 °F 35.6 °F 93% 29.58 in 0.8 mi SSW 6.9 mph - N/A   Overcast
3:50 PM 37.4 °F 31.4 °F 37.4 °F 100% 29.58 in 4.0 mi South 8.1 mph - N/A   Overcast
4:45 PM 37.4 °F 31.4 °F 35.6 °F 93% 29.59 in 0.5 mi SSW 8.1 mph - N/A Fog Fog
5:07 PM 37.4 °F 32.1 °F 35.6 °F 93% 29.58 in 0.2 mi SSW 6.9 mph - N/A Fog Fog
5:50 PM 37.4 °F 30.8 °F 35.6 °F 93% 29.56 in 0.8 mi South 9.2 mph - N/A   Overcast
6:55 PM 37.4 °F 29.8 °F 35.6 °F 93% 29.60 in 0.5 mi SSW 11.5 mph - N/A Fog Fog
7:55 PM 37.4 °F 31.4 °F 35.6 °F 93% 29.58 in 0.8 mi SSW 8.1 mph - N/A   Overcast
8:50 PM 37.4 °F 31.4 °F 35.6 °F 93% 29.56 in 0.5 mi South 8.1 mph - N/A Fog Fog
9:50 PM 37.4 °F 29.3 °F 35.6 °F 93% 29.58 in 1.8 mi SSW 12.7 mph - N/A   Overcast
10:17 PM 36.7 °F 28.0 °F 36.1 °F 98% 29.56 in 2.5 mi South 13.8 mph - N/A   Overcast
10:37 PM 36.9 °F 28.2 °F 36.5 °F 99% 29.55 in 2.5 mi South 13.8 mph - N/A   Overcast
10:57 PM 37.0 °F 28.5 °F 36.5 °F 98% 29.54 in 2.5 mi South 13.8 mph - N/A   Overcast
11:17 PM 37.4 °F 28.5 °F 36.7 °F 97% 29.53 in 2.0 mi South 15.0 mph - N/A   Overcast
11:37 PM 37.4 °F 29.3 °F 36.9 °F 98% 29.52 in 1.0 mi South 12.7 mph 20.7 mph N/A Rain Light Rain
11:57 PM 37.8 °F 28.6 °F 37.4 °F 99% 29.51 in 1.2 mi South 16.1 mph 21.9 mph N/A   Light Drizzle